Simultaneous Nadir Overpasses (SNOs) Predictions

Prediction of SNOs between GOES-15 and METOP-C Satellite Orbit:

Table of predicted SNOs for the next 14.0 days since TLE Epoch: 5/22/2022
Index Date Time (GOES-15) GOES-15 Lat,Lon METOP-C Lat,Lon Distance(km) Time Diff (sec)
1 05/22/2022 06:10:00 0.21,-127.66 -0.15,-129.35 192.57 80
2 05/23/2022 05:46:40 0.21,-127.70 0.96,-124.35 380.87 80
3 05/24/2022 18:08:09 -0.21,-127.79 0.05,-128.91 127.35 80
4 05/25/2022 17:44:49 -0.22,-127.83 -1.06,-123.91 446.38 80
5 05/27/2022 06:06:29 0.21,-127.86 0.06,-128.51 74.76 80
6 05/28/2022 05:43:08 0.22,-127.89 1.18,-123.52 498.43 80
7 05/29/2022 18:04:38 -0.21,-127.98 -0.19,-128.07 10.56 80
8 06/01/2022 06:00:17 0.22,-128.03 0.32,-127.68 40.49 80
9 06/02/2022 18:21:46 -0.21,-128.11 0.73,-132.23 469.79 80
10 06/03/2022 17:58:26 -0.23,-128.14 -0.45,-127.24 102.73 80
